Regional Weather Roundup
Issued by NWS Upton, NY

Current Version | Previous Version | Graphics & Text | Print | Product List | Glossary Off
Versions: 1 2 3 4 5 6 7 8 9 10 11 12 13 14 15 16 17 18 19 20 21 22 23 24 25 26 27

000
ASUS41 KOKX 150705
RWROKX
REGIONAL WEATHER ROUNDUP
NATIONAL WEATHER SERVICE NEW YORK NY
300 AM EDT TUE APR 15 2014

NOTE: "FAIR" INDICATES FEW OR NO CLOUDS BELOW 12,000 FEET WITH NO
SIGNIFICANT WEATHER AND/OR OBSTRUCTIONS TO VISIBILITY.

NYZ071-072-176-178-NJZ106-104-150800-
NEW YORK CITY METRO AREA


CITY           SKY/WX    TMP DP  RH WIND       PRES   REMARKS
CENTRAL PARK   PTCLDY    57  52  83 SE9       29.85S
LAGUARDIA APRT CLOUDY    54  51  90 S9        29.82S
KENNEDY INTL   FOG       55  54  96 S29G37    29.85S VSB 1/4
NEWARK/LIBERTY CLOUDY    65  58  78 S13       29.81S
TETERBORO      MOCLDY    65  56  72 SE9       29.80S
$$

NYZ177-179-078>081-150800-
LONG ISLAND NEW YORK

CITY           SKY/WX    TMP DP  RH WIND       PRES   REMARKS
FARMINGDALE    FOG       53  53 100 S13       29.87S VSB 1/2
ISLIP          FOG       55  53  93 S9G18     29.86F VSB 1/2
SHIRLEY        FOG       53  52  96 S10       29.89F VSB 1/4
WESTHAMPTON    FOG       53  52  96 S9        29.90F VSB 1/2
MONTAUK POINT    N/A     52  50  93 S7        29.92F
$$

NYZ052-065-067-150800-
HUDSON VALLEY

CITY           SKY/WX    TMP DP  RH WIND       PRES   REMARKS
WHITE PLAINS   FOG       55  54  96 S8        29.83S VSB 1/4
NEWBURGH       MOCLDY    64  57  77 S12G21    29.79F
MONTGOMERY     CLOUDY    64  55  72 S12       29.76F
POUGHKEEPSIE   CLOUDY    65  55  70 VRB7G24   29.78S
ALBANY         CLOUDY    64  53  67 S16G22    29.71F
$$

NJZ001-105-106-008-010-013-015-019>022-104-150800-
NEW JERSEY

CITY           SKY/WX    TMP DP  RH WIND       PRES   REMARKS
NEWARK/LIBERTY CLOUDY    65  58  78 S13       29.81S
TETERBORO      MOCLDY    65  56  72 SE9       29.80S
CALDWELL       MOCLDY    65  58  78 S7        29.81S
MORRISTOWN     MOCLDY    66  57  72 S6        29.81R
SOMERVILLE     MOCLDY    64  56  75 SE6       29.78S
LINDEN         PTSUNNY   67  58  75 SW7       29.83S
SUSSEX         MOCLDY    66  55  67 SW3       29.78R
ANDOVER          N/A     62  55  77 S8        29.79R
TRENTON        MOCLDY    64  57  78 S9        29.79F
MILLVILLE      CLOUDY    60  58  92 S8        29.84S
ATLANTIC CITY  CLOUDY    57  57 100 S18G30    29.86S FOG
WRIGHTSTOWN    CLOUDY    63  60  90 S15G22    29.79F
TOMS RIVER     CLOUDY    61  57  88 S16G25    29.84F
BELMAR         CLOUDY    63  55  77 S14G21    29.83F
$$

PAZ047>061-062-071-150800-
EASTERN PENNSYLVANIA

CITY           SKY/WX    TMP DP  RH WIND       PRES   REMARKS
PHILADELPHIA   LGT RAIN  65  57  75 S12       29.81S
ALLENTOWN      LGT RAIN  64  57  78 S8        29.77S
SCRANTON       CLOUDY    65  54  67 S15G25    29.70F
$$

CTZ002-004>006-009-010-012-RIZ004-006-007-MAZ004-011-015-150800-
SOUTHERN NEW ENGLAND
 IN CT

CITY           SKY/WX    TMP DP  RH WIND       PRES   REMARKS
BRADLEY INTL   CLOUDY    62  57  83 S15G22    29.82F
HARTFORD       CLOUDY    61  58  90 S15       29.84F FOG
DANBURY        CLOUDY    59  56  89 S9        29.83F
WTRBRY/OXFORD  CLOUDY    57  54  88 S13G24    29.87S
BRIDGEPORT     FOG       53  53 100 SW9       29.86S VSB 1/2
MERIDEN        CLOUDY    59  57  93 S14G29    29.85F FOG
NEW HAVEN      FOG       55  54  96 S6        29.87F VSB 1
CHESTER        CLOUDY    57  57 100 S14G21    29.89F FOG
GROTON         CLOUDY    52  51  97 S9        29.90F FOG
WILLIMANTIC    LGT RAIN  60  58  92 S13       29.88F FOG

 IN RI

CITY           SKY/WX    TMP DP  RH WIND       PRES   REMARKS
PROVIDENCE     LGT RAIN  60  56  86 S21G29    29.93S
BLOCK ISLAND   CLOUDY    52  48  87 S17G24    29.92F
WESTERLY       CLOUDY    52  49  89 S9        29.92F

 IN MA

CITY           SKY/WX    TMP DP  RH WIND       PRES   REMARKS
BOSTON         CLOUDY    61  56  83 S21G29    29.88F
WORCESTER      CLOUDY    60  56  86 SW18G29   29.86F
WESTFIELD      CLOUDY    62  56  80 S12G21    29.81F
PROVINCETOWN   CLOUDY    54  48  82 MISG      29.94S
NANTUCKET      CLOUDY    51  48  89 S16       29.99S
$$

ANZ330-335-338-340-345-350-353-355-150800-
COASTAL MARINE OBSERVATIONS


STATION/POSITION TIME  SKY/WX   TEMP    WIND        PRES    VSBY  WAVE
                                AIR SEA DIR/SP/G                  HT/PER
                 (UTC)          (F)     (DEG/KT/KT) (MB)    (MI)  (FT/S)
NY HARB ENTRANCE 0700            47 43  200/ 14/ 17 1010.8
4S FIRE IS       0600               45                N/A           6/ 7
23SW MTP         0700            49 43  180/ 16/ 16 1012.1          5/ 8
HUDSON CANYON    0600            54 46  190/ 19/ 23 1013.4          7/ 8
EXECUTION ROCKS  0700            54 43  200/ 12/ 17   N/A
WESTERN LI SOUND 0700            54     190/ 14/ 17   N/A           1/ 2
CENTRAL LI SOUND 0600            52 42  200/ 14/ 17   N/A           3/ 3
EASTERN LI SOUND NOT AVBL
ROBBINS REEF     0700            56     160/ 14/ 16   N/A
$$


>>>>>>>>>>>>>>>>>>>>>>>>>>>> KEY <<<<<<<<<<<<<<<<<<<<<<<<<<<
>                                                          <
>     SKY/WX - SKY CONDITION/PRESENT WEATHER               <
>     TMP    - TEMPERATURE IN FAHRENHEIT                   <
>     DP     - DEWPOINT IN FAHRENHEIT                      <
>     RH     - RELATIVE HUMIDITY IN PERCENT                <
>     WIND   - DIRECTION AND SPEED IN MPH                  <
>     PRES   - MEAN SEA LEVEL PRESSURE IN INCHES OF HG     <
>     WCI    - WIND CHILL INDEX                            <
>     VSB    - VISIBILITY IN MILES                         <
>     HX     - HEAT INDEX                                  <
>     TC     - TEMPERATURE IN CELSIUS                      <
>     VRB    - VARIABLE WIND DIRECTION                     <
>                                                          <
>>>>>>>>>>>>>>>>>>>>>>>>>>>> KEY <<<<<<<<<<<<<<<<<<<<<<<<<<<





USA.gov is the U.S. government's official web portal to all federal, state and local government web resources and services.